TRANSIT 16 1 02807U 67048A 12038.91760546 .00000074 00000-0 10000-3 0 7212 2 02807 89.6841 171.9514 0020029 334.5646 25.4517 13.49820798200891 TRANSIT 17 1 02965U 67092A 12038.92787817 .00000079 00000-0 10000-3 0 9696 2 02965 89.2402 48.8875 0048454 147.2060 213.2116 13.52535515187652 TRANSIT 18 1 03133U 68012A 12038.73003295 .00000075 00000-0 10000-3 0 638 2 03133 89.9619 283.7532 0076580 51.4602 309.3381 13.50640144162888 NNSS 19 1 04507U 70067A 12039.20710155 .00000075 00000-0 91891-4 0 7567 2 04507 89.8389 297.0537 0172318 169.6662 190.8105 13.50263665 40032 NNSS O-20 1 06909U 73081A 12039.91604387 .00000136 00000-0 12941-3 0 2157 2 06909 89.8601 344.1096 0160122 96.5851 265.3564 13.69919405111406 TRANSAT 1 10457U 77106A 12038.95328247 .00000072 00000-0 10000-3 0 3393 2 10457 89.7198 219.7356 0026808 11.9876 348.1907 13.48336845686108 NOVA I 1 12458U 81044A 12039.48765240 .00000050 00000-0 10000-3 0 5308 2 12458 90.0416 122.0646 0014323 9.8439 350.2977 13.22768607483582 NOVA 3 1 15362U 84110A 12038.94169640 .00000050 00000-0 10000-3 0 4000 2 15362 90.0019 50.1106 0030240 222.3437 137.5363 13.22543904318758 OSCAR 30 1 15935U 85066A 12039.17705205 .00000076 00000-0 12532-3 0 9360 2 15935 90.0790 29.3250 0168382 303.7168 54.8024 13.35349225289613 OSCAR 24 1 15936U 85066B 12039.50473591 .00000200 00000-0 35165-3 0 4943 2 15936 90.0682 25.3979 0168571 306.0340 52.5274 13.35241090291779 POLAR BEAR 1 17070U 86088A 12039.13215614 .00000080 00000-0 72640-4 0 6216 2 17070 89.5204 61.8775 0036698 239.6320 120.1214 13.74434790265316 OSCAR 27 1 18361U 87080A 12039.51675274 .00000067 00000-0 10000-3 0 9294 2 18361 90.3632 267.1097 0104528 297.0040 62.0465 13.44161823196437 OSCAR 29 1 18362U 87080B 12039.91197424 .00000067 00000-0 10000-3 0 1860 2 18362 90.3616 267.2875 0106615 308.7824 50.3836 13.43780017196224 OSCAR 23 1 19070U 88033A 12039.56245689 .00000057 00000-0 10000-3 0 2897 2 19070 90.2830 210.2849 0188992 194.7601 164.7983 13.27184281152016 OSCAR 32 1 19071U 88033B 12038.95394339 .00000058 00000-0 10000-3 0 7927 2 19071 90.2879 210.3523 0187621 187.6034 172.2256 13.27379421152119 NOVA 11 1 19223U 88052A 12038.69484743 .00000050 00000-0 10000-3 0 9538 2 19223 89.9990 91.6440 0028611 267.0864 92.7000 13.22473167141255 OSCAR 25 1 19419U 88074A 12039.51459850 .00000066 00000-0 10000-3 0 1755 2 19419 89.9444 24.9721 0094770 263.0585 95.9774 13.41895911148427 OSCAR 31 1 19420U 88074B 12038.91033797 .00000066 00000-0 10000-3 0 8597 2 19420 89.9440 24.9207 0092812 259.1583 99.9107 13.41938136148446